Location: ??
(35.5052°N, 139.7262°E)
Time: 00:33:51
(UTC+00:00)

NOSS 3-4 (A) - Pass Details

Date: 29 October 2021
Orbit: 861 x 1351 km, 63.4° (Epoch: 28 November)

Event Time Altitude Azimuth Distance (km) Brightness Sun altitude
Rises 19:47:11 0° 334° (NNW) 3,851 6.3 -15.5°
Reaches altitude 10° 19:49:54 10° 342° (NNW) 2,965 5.8 -14.9°
Maximum altitude 19:56:39 43° 52° (NE) 1,624 5.0 -13.6°
Drops below altitude 10° 20:04:05 10° 122° (ESE) 3,275 7.4 -12.1°
Sets 20:07:12 0° 129° (SE) 4,291 8.0 -11.4°
